Regional Weather Roundup
Issued by NWS

Home | Current Version | Previous Version | Graphics & Text | Print | Product List | Glossary On
Versions: 1 2 3 4 5 6 7 8 9 10 11 12 13 14 15 16 17 18 19 20 21 22 23 24 25 26 27 28 29 30 31 32 33 34 35 36 37 38 39 40 41 42 43 44 45 46 47 48 49 50
000
ASUS43 KMKX 291021
RWRWI

WISCONSIN REGIONAL WEATHER ROUNDUP
NATIONAL WEATHER SERVICE MILWAUKEE/SULLIVAN WI
500 AM CDT SAT AUG 29 2015

NOTE: "FAIR" INDICATES FEW OR NO CLOUDS BELOW 12,000 FEET WITH NO
SIGNIFICANT WEATHER AND/OR OBSTRUCTIONS TO VISIBILITY.

WIZ001-002-006>008-014>016-023>028-291100-
NORTHWEST WISCONSIN

CITY           SKY/WX    TMP DP  RH WIND       PRES   REMARKS
SUPERIOR ARPT  LGT RAIN  59  57  92 SW13G21   30.03F
ASHLAND        LGT RAIN  60  60 100 S7        30.09S FOG
HAYWARD        CLOUDY    56  54  93 NE3       30.11R
SIREN          PTCLDY    55  54  96 CALM      30.07R
CUMBERLAND     PTCLDY    52  52 100 CALM      30.08R
RICE LAKE      CLOUDY    53  51  95 N5        30.09R
CHETEK         CLEAR    N/A N/A N/A CALM      30.07R
LADYSMITH      CLEAR     53  51  95 NE5       30.10R
EAU CLAIRE     CLOUDY    55  53  93 NE5       30.04S
MENOMONIE      PTCLDY    52  52  97 N3        30.05R FOG
NEW RICHMOND   CLEAR     53  52  99 NE3       30.05R
OSCEOLA        CLEAR     53  53 100 CALM      30.07R
$$

WIZ003>005-009-010-017-018-291100-
NORTH CENTRAL WISCONSIN

CITY           SKY/WX    TMP DP  RH WIND       PRES   REMARKS
MANITOWISH WTR MOCLDY    54  54 100 CALM      30.08F
ARBOR VITAE    PTCLDY    53  52  95 S6        30.07F
WOODRUFF       PTCLDY    53  52  95 S6        30.07F
RHINELANDER    PTCLDY    53  52  96 CALM      30.11R
EAGLE RIVER    PTCLDY    54  54  99 CALM      30.07F
LAND O LAKES   MOCLDY    56  54  92 S8        30.06F
PHILLIPS       PTCLDY    51  51  99 CALM      30.09F
TOMAHAWK       FOG       48  47  97 CALM      30.11R VSB 1
MEDFORD        CLOUDY    52  52 100 NE3       30.08R FOG
MERRILL        CLOUDY    55  55 100 SE5       30.10R
$$

WIZ029-030-035-036-043>047-291100-
CENTRAL WISCONSIN

CITY           SKY/WX    TMP DP  RH WIND       PRES   REMARKS
WAUSAU         CLOUDY    57  55  93 E5        30.06R
MOSINEE        CLOUDY    55  55 100 E3        30.07S
MARSHFIELD     CLOUDY    58  55  90 E5        30.05S
STEVENS POINT  CLOUDY    56  56  99 E6        30.06S
WAUPACA        CLOUDY    59  58  97 CALM      30.06F
WAUTOMA        CLOUDY    58  58 100 CALM      30.05F
WISC RAPIDS    CLOUDY    59  56  89 E7        30.06S
CAMP DOUGLAS   CLOUDY    57  57 100 E6        30.02S
$$

WIZ011>013-019>022-031-037>040-048>050-291100-
NORTHEAST WISCONSIN

CITY           SKY/WX    TMP DP  RH WIND       PRES   REMARKS
ANTIGO         CLOUDY    54  53  97 CALM      30.11R
SHAWANO        CLOUDY    59  56  91 SE3       30.08S
OCONTO         CLOUDY    57  57 100 CALM      30.09S
STURGEON BAY   CLOUDY    59  55  88 S6        30.12R
GREEN BAY      LGT RAIN  59  57  93 SE3       30.08F FOG
MANITOWOC      LGT RAIN  57  55  94 MISG      30.09F FOG
APPLETON       CLOUDY    57  57 100 E5        30.06S FOG
CLINTONVILLE   DRIZZLE   55  55 100 E3        30.07F
OSHKOSH        LGT RAIN  59  57  93 SE9       30.06S FOG
$$

WIZ032>034-041-042-053>061-291100-
SOUTHWEST WISCONSIN

CITY           SKY/WX    TMP DP  RH WIND       PRES   REMARKS
LA CROSSE      CLOUDY    61  57  87 NE3       30.00S
SPARTA         CLOUDY    58  56  94 E5        30.02S
VIROQUA        CLOUDY    58  58 100 E7        30.00S
BOSCOBEL       CLOUDY    63  62  97 VRB3      29.97F FOG
PRAIRIE DU CHI CLOUDY    63  62  96 CALM      29.96S
PLATTEVILLE    CLOUDY    64  64  99 SE3       29.97S
$$

WIZ056-057-062-063-064-067-068-291100-
SOUTH CENTRAL WISCONSIN

CITY           SKY/WX    TMP DP  RH WIND       PRES   REMARKS
REEDSBURG      CLOUDY    58  58  99 E5        30.00S
BARABOO/DELLS  DRIZZLE   58  56  94 E10       30.00F
LONE ROCK      CLOUDY    62  61  96 E6        29.99S FOG
MINERAL POINT  RAIN      64  63  94 E3        29.98S
MADISON        LGT RAIN  63  61  93 SE10      30.00S FOG
MIDDLETON      CLOUDY    64  64  99 SE5       30.00F
WATERTOWN      RAIN      59  59 100 E5        30.04R
MONROE         HVY RAIN  63  61  94 SE10G16   29.98S
JANESVILLE     LGT RAIN  63  61  94 SE8       29.99F
$$

WIZ051-052-058>065-066-070>072-291100-
SOUTHEAST WISCONSIN

CITY           SKY/WX    TMP DP  RH WIND       PRES   REMARKS
MILWAUKEE      RAIN      61  59  93 N3        30.05R FOG
WAUKESHA       RAIN      59  59 100 NE8       30.06S
MILWAUKEE/TIMM RAIN      57  54  88 NE8       30.07R
RACINE         LGT RAIN  64  61  90 S3        30.06R FOG
BURLINGTON     LGT RAIN  62  62  97 CALM      30.04R
KENOSHA        RAIN      66  63  90 S5        30.04S FOG
FOND DU LAC    HVY RAIN  59  58  96 E6        30.06F FOG
SHEBOYGAN      LGT RAIN  57  56  96 NE9       30.08S FOG
WEST BEND      RAIN      55  55 100 CALM      30.06F
JUNEAU         HVY RAIN  58  58  99 E8        30.06F
$$

LSZ147-162-291100-
LAKE SUPERIOR

STATION/POSITION TIME  TEMP    WIND        PRES    WAVE
                       AIR SEA DIR/SP/G            HT/PER
                 (UTC) (F)     (DEG/KT/KT) (MB)    (FT/S)
W MID LAKE BUOY  0950   58 55  240/ 23/ 29 1013.0F   3/ 4
DEVILS ISLAND    1000   60     190/ 19/ 25 1013.6F
PORT WING        0903   59      30/ 19/ 28 1020.0R
SAXON HARBOR     0900   60     200/  4/  5 1017.9F
$$

LMZ867-665-643>646-291100-
LAKE MICHIGAN

STATION/POSITION TIME  TEMP    WIND        PRES    WAVE
                       AIR SEA DIR/SP/G            HT/PER
                 (UTC) (F)     (DEG/KT/KT) (MB)    (FT/S)
CHAMBERS ISLAND  0900   59     200/  4/ 13 1019.0R
S GREEN BAY BUOY 1000   61 62  180/  8/ 10 1020.1R
N MID LAKE BUOY  0950   62 64  230/ 12/ 14 1019.0R   3/ 4
NORTHPORT PIER   0900   61      CALM  /  3 1019.0R
SISTER BAY       0904   61     250/  5/  6   N/A
ALGOMA LAKESHORE 0914             CALM       N/A
SHEBOYGAN LAKESH 1000   53      20/  8/  9 1019.1S
PORT WASHINGTON  0900   56      40/  8/ 10 1019.0
ATWATER BUOY     1000   53 48  350/ 17/ 21 1018.7F
MILWAUKEE LAKESH 0900   58     340/  6/  7   N/A
S MID LAKE BUOY  0950   69 68  130/ 10/ 12 1017.1F   1/ 3
KENOSHA   LAKESH 1000   61     180/  6/  7 1016.9S
$$

TC  - TEMPERATURE IN CELSIUS
VSB - VISIBILITY IN STATUTE MILES
WCI - WIND CHILL INDEX
HX  - HEAT INDEX




USA.gov is the U.S. government's official web portal to all federal, state and local government web resources and services.